Location: 22
(39.7117°N, 89.5929°W)
Time: 08:20:00
(UTC-05:00)

Vanguard 1 Rocket - Pass Details

Date: 11 February 2023
Orbit: 652 x 4223 km, 34.3° (Epoch: 24 March)

Event Time Altitude Azimuth Distance (km) Brightness Sun altitude
Rises 09:14:18 0° 219° (SW) 3,254 10.3 22.2°
Reaches altitude 10° 09:16:34 10° 208° (SSW) 2,529 10.0 22.5°
Maximum altitude 09:21:47 32° 146° (SE) 1,921 11.2 23.2°
Drops below altitude 10° 09:30:17 10° 88° (E) 4,204 11.5 24.4°
Sets 09:35:17 0° 81° (E) 5,839 12.0 25.0°
